Weather WX

World > North America > United States > Nevada

Wadsworth, Nevada Regional Weather

Lat: 39.63N, Lon: 119.29W
Wx Zone: NVZ003
Feedback

Wadsworth, NV Regional Weather

Expires:201906170900;;202617
ASUS45 KREV 170810
RWRNV 
NEVADA REGIONAL WEATHER ROUNDUP
NATIONAL WEATHER SERVICE RENO NV
100 AM PDT MON JUN 17 2019

NOTE: "FAIR" INDICATES FEW OR NO CLOUDS BELOW 12,000 FEET WITH NO
SIGNIFICANT WEATHER AND/OR OBSTRUCTIONS TO VISIBILITY.


NVZ001-003-004-170900-
WESTERN NEVADA
  
CITY           SKY/WX    TMP DP  RH WIND       PRES   REMARKS
RENO           PTCLDY    69  44  40 W6        29.97S                  
CARSON CITY    FAIR      63  43  48 CALM      30.00S                  
MINDEN         FAIR      50  39  66 CALM      30.03R                  
SLIDE MTN        N/A     52  37  58 NE17        N/A                   
PYRAMID LAKE     N/A     79 N/A N/A W2          N/A                   
FALLON         CLEAR     66  46  48 S6        29.93F                  
LOVELOCK       PTCLDY    71  42  35 S12       29.92F                  
HAWTHORNE      PTCLDY    63  50  63 SE6       29.98F                  
$$


SKY/WX - Weather  TMP - Temperature  DP - Dew Point  RH - Relative Humidity
WIND - Wind Direction/Speed PRES - Barometric Pressure VSB - Visibility
WCI - Wind Chill Index E13G22 Wind - East Wind 13 mph/Gusts of 22 mph